Hourly Data Report for September 27, 2017

All times are specified in Local Standard Time (LST). Add 1 hour to adjust for Daylight Saving Time where and when it is observed.

BUCTOUCHE CDA CS
NEW BRUNSWICK

46°25'49.006" N
64°46'05.009" W
35.90 m
8100593
71666
ABT

Download Data

Hourly Data (September 2017)
Hourly Data Report for September 27, 2017
Temp Definition
°C
Dew Point Temp Definition
°C
Rel Hum Definition
%
Wind Dir Definition
10's deg

Wind Spd Definition
km/h
Visibility Definition
km
Stn Press Definition
kPa
Hmdx Definition


Wind Chill Definition


Weather Definition


TIME
00:00 14.5 10.7 78 6 13   101.31     LegendNANA
01:00 14.3 10.5 78 7 12   101.29     LegendNANA
02:00 14.0 11.0 83 7 11   101.30     LegendNANA
03:00 14.2 11.5 84 6 11   101.24     LegendNANA
04:00 14.1 11.8 86 8 11   101.18     LegendNANA
05:00 13.1 12.0 93 8 9   101.17     LegendNANA
06:00 13.1 12.1 94 9 11   101.09     LegendNANA
07:00 13.5 12.5 94 11 12   101.06     LegendNANA
08:00 14.1 12.8 92 9 8   101.03     LegendNANA
09:00 14.0 13.0 93 14 13   100.93     LegendNANA
10:00 14.9 13.4 91 14 9   100.86     LegendNANA
11:00 15.9 13.9 88 16 6   100.78     LegendNANA
12:00 17.7 15.3 86 19 6   100.70     LegendNANA
13:00 20.3 16.8 81 22 12   100.57 25   LegendNANA
14:00 21.4 17.6 79 23 9   100.49 27   LegendNANA
15:00 22.1 18.1 78 23 7   100.42 28   LegendNANA
16:00 22.8 18.3 76 21 7   100.36 29   LegendNANA
17:00 19.0 16.7 87 3 5   100.24     LegendNANA
18:00 21.2 18.0 82 20 10   100.19 27   LegendNANA
19:00 20.3 17.7 85 20 13   100.18 26   LegendNANA
20:00 20.0 17.5 86 20 15   100.07 26   LegendNANA
21:00 19.6 17.0 85 21 14   99.97     LegendNANA
22:00 20.0 17.6 86 21 21   99.90 26   LegendNANA
23:00 21.6 18.7 84 22 26   99.97 28   LegendNANA

Notes on Data Quality.

Legend

  • E = Estimated
  • M = Missing
  • NA = Not Available
  • ‡ = Partner data that is not subject to review by the National Climate Archives
Date modified: